Other Public Products
Issued by NWS Charleston, SC

Home | Current Version | Previous Version | Text Only | Print | Product List | Glossary On
Versions: 1 2 3 4 5 6 7 8 9 10 11 12 13 14 15 16 17 18 19 20 21 22 23 24 25 26 27 28 29 30 31 32 33 34 35 36 37 38 39 40 41 42 43 44 45 46 47 48 49 50
000
FPUS82 KCHS 281327
OPUCHS

TEST...KCHS/KSAV Gateway Observations...TEST
National Weather Service Charleston SC
900 AM EDT FRI JUL 28 2017

NOTE: "fair" indicates few or no clouds below 12,000 feet with no
significant weather and/or obstructions to visibility.

SCZ050-WAZ558-NCZ071-TXZ119-213-PAZ071-DCZ001-FLZ074-172-MI076-
NYZ176-178-MAZ016-IL014-TNZ027-NJZ106-GAZ044-MD014-281400-

...Gateway Observations for Charleston International...

CITY           SKY/WX    TMP DP  RH WIND       PRES   REMARKS
Chas Airport   MOSUNNY   79  74  84 W5        29.90F
Seattle        MOCLDY    58  52  80 NE6       30.12R
Charlotte      CLOUDY    79  75  87 S6        29.89F
Dallas DFW     CLOUDY    84  69  60 SW10      29.92R
Dallas Love    CLOUDY    83  69  62 SW7       29.94R
Philladelphia  CLOUDY    75  70  84 NE7       29.85S HAZE
Wash National  CLOUDY    79  74  84 N3        29.83S
Baltimore      CLOUDY    77  74  90 E13       29.83S
Miami          MOSUNNY   87  77  72 CALM      29.99R HX  99
Detroit        CLOUDY    68  61  78 N12       29.94S
Newark         CLOUDY    75  69  81 N7        29.86S
Laguardia      CLOUDY    73  70  90 NE9       29.86S FOG
J F K          PTSUNNY   79  72  78 NE10      29.87S
Boston Logan   MOSUNNY   75  64  68 NW12      29.85F
Ft. Lauderdale NOT AVBL
Chicago O`Hare PTSUNNY   72  64  76 NE14      29.98R
Chicago Midway PTSUNNY   74  63  68 N20       29.97R
Houston Bush   PTSUNNY   82  77  84 SW5       29.99R HX  90
Houston Hobby  MOSUNNY   81  76  84 SW3       29.99R
Nashville      LGT RAIN  76  73  91 SW5       29.87S FOG
Atlanta        PTSUNNY   77  73  87 W7        29.95R

$$

GAZ044-118-TXZ119-213-NCZ071-DCZ001-MDZ014-506-PAZ021-071-NJZ106-
NYZ176-178-MAZ106-OHZ011-021-055-MIZ076-KYZ091-ILZ014-INZ047-
MNZ060-ONZ431-281400-

...Gateway Observations for Savannah International...

CITY           SKY/WX    TMP DP  RH WIND       PRES   REMARKS
Savannah Arpt  PTSUNNY   80  75  84 W5        29.92S
Atlanta        PTSUNNY   77  73  87 W7        29.95R
Charlotte      CLOUDY    79  75  87 S6        29.89F
Dallas DFW     CLOUDY    84  69  60 SW10      29.92R
Houston Bush   PTSUNNY   82  77  84 SW5       29.99R HX  90
Wash National  CLOUDY    79  74  84 N3        29.83S
Wash Dulles    CLOUDY    75  69  81 NW7       29.84F
Baltimore      CLOUDY    77  74  90 E13       29.83S
Philadelphia   CLOUDY    75  70  84 NE7       29.85S HAZE
Newark         CLOUDY    75  69  81 N7        29.86S
Laguardia      CLOUDY    73  70  90 NE9       29.86S FOG
J F K          PTSUNNY   79  72  78 NE10      29.87S
Boston         MOSUNNY   75  64  68 NW12      29.85F
Pittsburg      CLOUDY    72  70  93 CALM      29.87S FOG
Akron          PTSUNNY   71  64  78 NE8       29.88S
Cleveland      CLOUDY    75  68  78 N12       29.91R
Cincinnati     CLOUDY    72  72 100 NE9       29.86R
Columbus       CLOUDY    71  69  94 N9        29.85S
Detroit        CLOUDY    68  61  78 N12       29.94S
Chicago O`Hare PTSUNNY   72  64  76 NE14      29.98R
Minneapolis    MOSUNNY   70  60  70 VRB5      30.09R
Indianapolis   CLOUDY    74  71  91 NE9       29.87R
Toronto Canada CLOUDY    64  54  68 NE12G18   29.98S

$$




USA.gov is the U.S. government's official web portal to all federal, state and local government web resources and services.